Time,TemperatureF,DewpointF,PressureIn,WindDirection,WindDirectionDegrees,WindSpeedMPH,WindSpeedGustMPH,Humidity,HourlyPrecipIn,Conditions,Clouds,dailyrainin,SoftwareType,DateUTC
2013-03-07 00:00:00,45.0,-50.3,29.80,SW,225,0.0,3.0,1,0.00,,,0.00,Weather View 32 v70,2013-03-07 08:00:00,
2013-03-07 00:30:00,46.0,-49.6,29.80,West,270,0.0,3.0,1,0.00,,,0.00,Weather View 32 v70,2013-03-07 08:30:00,
2013-03-07 01:00:00,46.0,-49.6,29.81,WSW,247,0.0,4.0,1,0.00,,,0.00,Weather View 32 v70,2013-03-07 09:00:00,
2013-03-07 02:00:00,47.0,-49.0,29.81,SSE,157,0.0,3.0,1,0.00,,,0.00,Weather View 32 v70,2013-03-07 10:00:00,
2013-03-07 02:30:00,47.0,-49.0,29.81,SW,225,0.0,3.0,1,0.00,,,0.00,Weather View 32 v70,2013-03-07 10:30:00,
2013-03-07 03:00:00,47.0,-9.0,29.80,SW,225,0.0,3.0,9,0.00,,,0.00,Weather View 32 v70,2013-03-07 11:00:00,
2013-03-07 03:30:00,46.0,-17.8,29.79,SW,225,0.0,3.0,6,0.00,,,0.00,Weather View 32 v70,2013-03-07 11:30:00,
2013-03-07 04:00:00,46.0,-49.6,29.80,SSE,157,0.0,4.0,1,0.00,,,0.00,Weather View 32 v70,2013-03-07 12:00:00,
2013-03-07 04:05:00,46.0,-49.6,29.80,SSE,157,0.0,4.0,1,0.00,,,0.00,Weather View 32 v70,2013-03-07 12:05:00,
2013-03-07 04:30:00,45.0,-50.3,29.79,SSE,157,0.0,5.0,1,0.00,,,0.00,Weather View 32 v70,2013-03-07 12:30:00,
2013-03-07 05:00:00,45.0,-50.3,29.79,SE,135,0.0,5.0,1,0.00,,,0.00,Weather View 32 v70,2013-03-07 13:00:00,
2013-03-07 05:06:00,45.0,-50.3,29.79,SE,135,0.0,5.0,1,0.00,,,0.00,Weather View 32 v70,2013-03-07 13:06:00,
2013-03-07 05:30:00,45.0,-50.3,29.79,South,180,0.0,3.0,1,0.00,,,0.00,Weather View 32 v70,2013-03-07 13:30:00,
2013-03-07 06:00:00,45.0,-50.3,29.79,East,90,0.0,3.0,1,0.00,,,0.00,Weather View 32 v70,2013-03-07 14:00:00,
2013-03-07 06:06:00,45.0,-50.3,29.79,East,90,0.0,3.0,1,0.00,,,0.00,Weather View 32 v70,2013-03-07 14:06:00,
2013-03-07 06:30:00,45.0,-50.3,29.80,SSE,157,0.0,3.0,1,0.00,,,0.00,Weather View 32 v70,2013-03-07 14:30:00,
2013-03-07 07:00:00,46.0,-49.6,29.80,ESE,112,1.0,3.0,1,0.00,,,0.00,Weather View 32 v70,2013-03-07 15:00:00,
2013-03-07 07:07:00,46.0,-49.6,29.80,ESE,112,1.0,3.0,1,0.00,,,0.00,Weather View 32 v70,2013-03-07 15:07:00,
2013-03-07 07:30:00,47.0,-49.0,29.81,ESE,112,1.0,4.0,1,0.00,,,0.00,Weather View 32 v70,2013-03-07 15:30:00,
2013-03-07 08:00:00,47.0,-49.0,29.81,ENE,67,0.0,6.0,1,0.00,,,0.00,Weather View 32 v70,2013-03-07 16:00:00,
2013-03-07 08:07:00,47.0,-49.0,29.81,ENE,67,0.0,6.0,1,0.00,,,0.00,Weather View 32 v70,2013-03-07 16:07:00,
2013-03-07 08:34:00,49.0,-47.8,29.81,SSE,157,0.0,6.0,1,0.00,,,0.00,Weather View 32 v70,2013-03-07 16:34:00,
2013-03-07 09:00:00,50.0,-47.2,29.82,SSW,202,0.0,7.0,1,0.00,,,0.00,Weather View 32 v70,2013-03-07 17:00:00,
2013-03-07 09:08:00,50.0,-47.2,29.82,SSW,202,0.0,7.0,1,0.00,,,0.00,Weather View 32 v70,2013-03-07 17:08:00,
2013-03-07 09:30:00,51.0,12.4,29.83,NW,315,0.0,7.0,21,0.00,,,0.00,Weather View 32 v70,2013-03-07 17:30:00,
2013-03-07 10:00:00,52.0,29.0,29.83,WNW,292,0.0,6.0,41,0.00,,,0.00,Weather View 32 v70,2013-03-07 18:00:00,
2013-03-07 10:08:00,52.0,29.0,29.83,WNW,292,0.0,6.0,41,0.00,,,0.00,Weather View 32 v70,2013-03-07 18:08:00,
2013-03-07 10:30:00,56.0,35.5,29.84,NW,315,0.0,6.0,46,0.00,,,0.00,Weather View 32 v70,2013-03-07 18:30:00,
2013-03-07 11:00:00,58.0,53.2,29.86,ESE,112,0.0,7.0,84,0.00,,,0.00,Weather View 32 v70,2013-03-07 19:00:00,
2013-03-07 11:09:00,58.0,53.2,29.86,ESE,112,0.0,7.0,84,0.00,,,0.00,Weather View 32 v70,2013-03-07 19:09:00,
2013-03-07 11:30:00,59.0,49.6,29.86,WSW,247,0.0,7.0,71,0.00,,,0.00,Weather View 32 v70,2013-03-07 19:30:00,
2013-03-07 12:00:00,58.0,49.4,29.85,SSE,157,4.0,10.0,73,0.00,,,0.00,Weather View 32 v70,2013-03-07 20:00:00,
2013-03-07 12:09:00,58.0,49.4,29.85,SSE,157,4.0,10.0,73,0.00,,,0.00,Weather View 32 v70,2013-03-07 20:09:00,
2013-03-07 12:30:00,59.0,45.5,29.83,ESE,112,0.0,10.0,61,0.00,,,0.00,Weather View 32 v70,2013-03-07 20:30:00,
2013-03-07 13:00:00,61.0,46.5,29.83,SSE,157,2.0,9.0,59,0.00,,,0.00,Weather View 32 v70,2013-03-07 21:00:00,
2013-03-07 13:30:00,61.0,45.6,29.81,ESE,112,0.0,9.0,57,0.00,,,0.00,Weather View 32 v70,2013-03-07 21:30:00,
2013-03-07 14:00:00,62.0,47.9,29.80,NNW,337,1.0,7.0,60,0.00,,,0.00,Weather View 32 v70,2013-03-07 22:00:00,
2013-03-07 14:30:00,62.0,47.9,29.79,WNW,292,3.0,7.0,60,0.00,,,0.00,Weather View 32 v70,2013-03-07 22:30:00,
2013-03-07 15:00:00,63.0,47.5,29.78,WNW,292,2.0,8.0,57,0.00,,,0.00,Weather View 32 v70,2013-03-07 23:00:00,
2013-03-07 15:30:00,61.0,44.2,29.77,SSW,202,0.0,8.0,54,0.00,,,0.00,Weather View 32 v70,2013-03-07 23:30:00,
2013-03-07 16:00:00,61.0,44.7,29.76,SSW,202,0.0,6.0,55,0.00,,,0.00,Weather View 32 v70,2013-03-08 00:00:00,
2013-03-07 16:30:00,60.0,44.7,29.75,NNE,22,0.0,6.0,57,0.00,,,0.00,Weather View 32 v70,2013-03-08 00:30:00,
2013-03-07 17:00:00,58.0,45.9,29.74,NW,315,3.0,7.0,64,0.00,,,0.00,Weather View 32 v70,2013-03-08 01:00:00,
2013-03-07 17:30:00,57.0,46.5,29.73,WNW,292,2.0,8.0,68,0.00,,,0.00,Weather View 32 v70,2013-03-08 01:30:00,
2013-03-07 18:00:00,56.0,47.4,29.72,WNW,292,6.0,8.0,73,0.00,,,0.00,Weather View 32 v70,2013-03-08 02:00:00,
2013-03-07 18:30:00,53.0,49.2,29.72,WNW,292,1.0,12.0,87,0.00,,,0.00,Weather View 32 v70,2013-03-08 02:30:00,
2013-03-07 19:00:00,52.0,48.2,29.72,WNW,292,2.0,12.0,87,0.00,,,0.00,Weather View 32 v70,2013-03-08 03:00:00,
2013-03-07 19:30:00,52.0,41.0,29.73,WSW,247,0.0,13.0,66,0.00,,,0.00,Weather View 32 v70,2013-03-08 03:30:00,
2013-03-07 20:00:00,50.0,23.4,29.72,NW,315,5.0,15.0,35,0.02,,,0.02,Weather View 32 v70,2013-03-08 04:00:00,
2013-03-07 20:30:00,49.0,-47.8,29.70,NNW,337,6.0,15.0,1,0.02,,,0.02,Weather View 32 v70,2013-03-08 04:30:00,
2013-03-07 21:00:00,49.0,-47.8,29.70,NW,315,0.0,12.0,1,0.00,,,0.02,Weather View 32 v70,2013-03-08 05:00:00,
2013-03-07 21:30:00,49.0,-47.8,29.70,ENE,67,6.0,10.0,1,0.00,,,0.02,Weather View 32 v70,2013-03-08 05:30:00,
2013-03-07 22:00:00,48.0,-48.4,29.68,NNW,337,2.0,9.0,1,0.00,,,0.02,Weather View 32 v70,2013-03-08 06:00:00,
2013-03-07 22:30:00,48.0,-48.4,29.68,NW,315,0.0,9.0,1,0.00,,,0.02,Weather View 32 v70,2013-03-08 06:30:00,
2013-03-07 23:00:00,48.0,-48.4,29.66,WNW,292,0.0,7.0,1,0.00,,,0.02,Weather View 32 v70,2013-03-08 07:00:00,
2013-03-07 23:30:00,48.0,-48.4,29.66,WNW,292,5.0,7.0,1,0.00,,,0.02,Weather View 32 v70,2013-03-08 07:30:00,